Погода в Бонгари

Австралия     27°04′59″S   153°09′35″E
темп.,
°C
ветер,
м/с
пор.,
м/с
влажн.,
%
обл.,
%
осадки,
мм/ч
давл.,
гПа
погр.,
м
30 ноября, вт
вт3001:00+24юв9984100 0.2 1014716
04:00+23вюв8991100 4.7 1013606
07:00+23в6792100 8.5 1015436
10:00+23вюв4590100 12.0 1014257
13:00+24св5685100 2.9 1012412
16:00+24всв4582100 4.8 1012247
19:00+24всв5682100 2.2 1013381
22:00+23всв3582100 6.2 1013444
1 декабря, ср
ср101:00+23св3481100 1.3 1011364
04:00+23ссв3584100 2.8 1011456
07:00+23з3285100 0.1 1012220
10:00+23ююз1185100 0.4 1012103
13:00+24ююв22810 0.1 1011195
16:00+25вюв337782 0.4 1010467
19:00+25всв22805 0.1 101267
22:00+24в33855 0.8 1013231
2 декабря, чт
чт201:00+24зсз11820 1.9 101146
04:00+24ююв66840 3.4 1012453
07:00+24юв778269 0.2 1013729
10:00+24юв7781100 0.4 1013630
13:00+24юв998124 0.1 1013673
16:00+24юв887832 0.1 1012736
19:00+24юв897828 0.0 1014857
22:00+24юв89764 0.0 1014811
3 декабря, пт
пт301:00+23ююв89762 0.0 1013826
04:00+23ююв89771 0.0 1013771
07:00+22ю67805 0.0 1015639
10:00+23ююв66780 0.0 1015620
13:00+23юв66750 0.0 1014502
16:00+24юв88710 0.0 1013564
19:00+24юв67670 0.0 1014687
22:00+24юв78660 0.0 1014810
4 декабря, сб
сб401:00+23юв78660 0.0 1013840
04:00+23ююв78680 0.0 1013869
07:00+23ююв55690 0.0 1014820
10:00+23юв33697 0.0 1013642
13:00+23вюв33675 0.0 1011407
16:00+24всв66653 0.0 1008445
19:00+23юв8873100 1.2 1012701
22:00+23ююв6671100 1.6 1013888